TimePST,TemperatureF,Dew PointF,Humidity,Sea Level PressureIn,VisibilityMPH,Wind Direction,Wind SpeedMPH,Gust SpeedMPH,PrecipitationIn,Events,Conditions,WindDirDegrees,DateUTC
12:56 AM,30.0,16.0,56,30.03,10.0,NW,5.8,-,N/A,,Clear,310,2012-12-09 08:56:00
1:56 AM,30.0,16.0,56,30.03,10.0,Calm,Calm,-,N/A,,Clear,0,2012-12-09 09:56:00
2:56 AM,36.0,17.1,46,30.03,10.0,WNW,4.6,-,N/A,,Clear,290,2012-12-09 10:56:00
3:56 AM,34.0,17.1,50,30.05,10.0,Calm,Calm,-,N/A,,Clear,0,2012-12-09 11:56:00
4:56 AM,44.1,19.0,37,30.06,10.0,North,11.5,-,N/A,,Clear,360,2012-12-09 12:56:00
5:56 AM,42.1,19.0,40,30.08,10.0,NW,16.1,-,N/A,,Clear,320,2012-12-09 13:56:00
6:56 AM,46.0,19.0,34,30.10,10.0,NNW,15.0,-,N/A,,Clear,330,2012-12-09 14:56:00
7:56 AM,46.9,19.0,33,30.12,10.0,NNW,16.1,-,N/A,,Clear,330,2012-12-09 15:56:00
8:56 AM,52.0,19.0,27,30.16,10.0,NW,10.4,-,N/A,,Clear,320,2012-12-09 16:56:00
9:56 AM,57.9,19.0,22,30.16,10.0,North,18.4,25.3,N/A,,Clear,360,2012-12-09 17:56:00
10:56 AM,60.1,19.9,21,30.14,10.0,North,20.7,28.8,N/A,,Clear,10,2012-12-09 18:56:00
11:56 AM,62.1,21.0,21,30.13,10.0,North,16.1,24.2,N/A,,Clear,10,2012-12-09 19:56:00
12:56 PM,64.0,21.0,19,30.11,10.0,North,18.4,24.2,N/A,,Clear,360,2012-12-09 20:56:00
1:56 PM,63.0,21.0,20,30.10,10.0,North,19.6,29.9,N/A,,Clear,10,2012-12-09 21:56:00
2:56 PM,61.0,21.0,21,30.12,10.0,North,21.9,29.9,N/A,,Clear,10,2012-12-09 22:56:00
3:56 PM,57.0,21.0,25,30.13,10.0,North,16.1,-,N/A,,Clear,360,2012-12-09 23:56:00
4:56 PM,52.0,19.9,28,30.14,10.0,North,10.4,-,N/A,,Clear,10,2012-12-10 00:56:00
5:56 PM,51.1,19.9,29,30.17,10.0,North,12.7,-,N/A,,Clear,350,2012-12-10 01:56:00
6:56 PM,51.1,21.0,31,30.18,10.0,NNW,20.7,27.6,N/A,,Clear,340,2012-12-10 02:56:00
7:56 PM,44.1,19.9,38,30.21,10.0,North,9.2,-,N/A,,Clear,360,2012-12-10 03:56:00
8:56 PM,43.0,21.0,42,30.22,10.0,NW,10.4,-,N/A,,Clear,320,2012-12-10 04:56:00
9:56 PM,42.1,21.0,43,30.21,10.0,NW,8.1,-,N/A,,Clear,310,2012-12-10 05:56:00
10:56 PM,45.0,21.0,39,30.21,10.0,NW,9.2,-,N/A,,Clear,320,2012-12-10 06:56:00
11:56 PM,42.1,21.9,45,30.21,10.0,West,10.4,-,N/A,,Clear,280,2012-12-10 07:56:00